Location: Newark
(15.4608°S, 41.1635°W)
Time: 22:38:28
(UTC+00:00)

Vanguard 3 - Pass Details

Date: 06 August 2021
Orbit: 510 x 3260 km, 33.3° (Epoch: 20 September)

Event Time Altitude Azimuth Distance (km) Brightness Sun altitude
Rises 02:22:17 0° 325° (NW) 7,205 12.0 -83.1°
Reaches altitude 10° 02:28:02 10° 332° (NNW) 6,080 11.5 -84.4°
Enters shadow 02:28:26 11° 333° (NNW) 6,001 11.5 -84.5°
Maximum altitude 02:44:03 37° 32° (NNE) 3,500 - -88.0°
Drops below altitude 10° 02:54:58 10° 94° (E) 4,215 - -88.4°
Sets 02:58:03 0° 102° (ESE) 4,863 - -87.8°
